Regional Weather Roundup
Issued by NWS Sioux Falls, SD

Home | Current Version | Previous Version | Text Only | Print | Product List | Glossary On
Versions: 1 2 3 4 5 6 7 8 9 10 11 12 13 14 15 16 17 18 19 20 21 22 23 24 25 26 27 28 29 30 31 32 33 34 35 36 37 38 39 40 41 42 43 44 45 46 47 48 49 50
000
ASUS43 KFSD 210710
RWRFSD

WEATHER ROUNDUP FOR SE SOUTH DAKOTA/SW MINNESOTA/NW IOWA
NATIONAL WEATHER SERVICE SIOUX FALLS SD
200 AM CDT TUE OCT 21 2014

NOTE: "FAIR" INDICATES FEW OR NO CLOUDS BELOW 12,000 FEET WITH NO
SIGNIFICANT WEATHER AND OR OBSTRUCTIONS TO VISIBILITY.


SDZ038>040-050-052>070-210800-
SOUTHEAST SOUTH DAKOTA

CITY           SKY/WX    TMP DP  RH WIND       PRES   REMARKS
CHAMBERLAIN    CLEAR     49  35  57 SE10      29.97S
HURON          CLEAR     47  35  63 SE8       30.02R
MADISON        FAIR      45  37  76 CALM      30.06S
MITCHELL       CLEAR     44  35  70 SE6       30.03S
SIOUX FALLS    CLEAR     41  36  82 CALM      30.06R
WINNER         FAIR      62  41  46 S20       29.94F
YANKTON        CLEAR     43  37  81 E3        30.06R
$$

MNZ071-072-080-081-089-090-097-098-210800-
SOUTHWEST MINNESOTA

CITY           SKY/WX    TMP DP  RH WIND       PRES   REMARKS
FAIRMONT       CLEAR     39  32  75 CALM      30.09R
JACKSON        CLEAR     37  34  87 CALM      30.09R
LUVERNE        PTCLDY    39  36  87 CALM      30.08S
MARSHALL       CLEAR     36  30  80 CALM      30.06S
MONTEVIDEO     CLEAR     39  36  87 SE8       30.09R
PIPESTONE      CLEAR     45  36  70 SE6       30.06F
REDWOOD FALLS  CLEAR     45  37  73 E7        30.09R
TRACY          CLEAR     42  37  80 CALM      30.08S
WINDOM         CLEAR     36  32  87 CALM      30.09R
WORTHINGTON    CLEAR     37  32  81 CALM      30.09S
$$

IAZ001>003-012>014-020>022-031-032-NEZ013-014-SDZ071-210800-
NORTHWEST IOWA

CITY           SKY/WX    TMP DP  RH WIND       PRES   REMARKS
CHEROKEE       CLEAR     37  36  98 CALM      30.08S
DENISON        CLEAR     39  39 100 CALM      30.06S
ESTHERVILLE    CLEAR     37  33  85 N3        30.08S
LE MARS        CLEAR     36  36 100 CALM      30.07S
ORANGE CITY    CLEAR     48  37  66 E5        30.07S
SHELDON        PTCLDY    36  34  93 E3        30.07R
SIOUX CITY     CLEAR     38  35  89 CALM      30.07S
SPENCER        CLEAR     37  33  85 CALM      30.09R
STORM LAKE     CLEAR     46  43  87 E5        30.09R
$$

ABBREVIATIONS USED IN REMARKS
   TC - TEMPERATURE IN CELSIUS
  WCI - WIND CHILL INDEX
   HX - HEAT INDEX
  VSB - VISIBILITY




USA.gov is the U.S. government's official web portal to all federal, state and local government web resources and services.